Voltar ao catálogo

NAVSTAR 18

USA 50

AtivoNavegaçãoMEO
NORAD 20452·PAYLOAD·🇺🇸 United States

Lançado Jan 24, 1990 de Cape Canaveral Space Force Station

Loading…

Próximas Passagens (próximas 24 horas)

TLE

AtualizadoSource: Space-Track

Época: Sep 14, 2026, 02:04 UTC

1 20452U 90008A   26257.08615356  .00000007  00000-0  00000-0 0  9993
2 20452  54.8803 130.5346 0013244 283.8120 213.0821  1.89597855258114

Acompanhe NAVSTAR 18 em tempo real com AllMySat

Download on the App Store